{"data":{"norad_id":66743,"epoch":"2026-05-25T03:01:03.726048Z","epoch_age_seconds":67620,"freshness":"FRESH","line1":"1 66743U 25276CF  26145.12573757  .00005475  00000+0  25736-3 0  9999","line2":"2 66743  97.4193 219.1118 0003422  91.7786 268.3841 15.19994644 26926","mean_motion":15.19994644,"eccentricity":0.0003422,"inclination_deg":97.4193,"raan_deg":219.1118,"arg_perigee_deg":91.7786,"mean_anomaly_deg":268.3841,"bstar":0.00025736,"rev_number":2692,"period_min":94.737175929154,"perigee_km":503.50108242505,"apogee_km":508.21248777157,"semimajor_km":6883.9937850983,"source":"CELESTRAK","updated_at":"2026-05-25T13:38:06.449738Z"}}